Miscellaneous Local Product
Issued by NWS Hastings, NE

Home | Current Version | Previous Version | Graphics & Text | Print | Product List | Glossary On
Versions: 1 2 3 4 5 6 7 8 9 10 11 12 13 14 15 16 17 18 19 20 21 22 23 24 25 26 27 28 29 30 31 32 33 34 35 36 37 38 39 40 41 42 43 44 45 46 47 48 49 50
000
AXUS43 KGID 170802
MISGRI

GID CWA HOURLY WEATHER ROUNDUP
NATIONAL WEATHER SERVICE HASTINGS NE
200 AM CST WED JAN 17 2018

NOTE: "FAIR" INDICATES FEW OR NO CLOUDS BELOW 12,000 FEET WITH NO
SIGNIFICANT WEATHER AND/OR OBSTRUCTIONS TO VISIBILITY.

...SOUTH CENTRAL NEBRASKA...

CITY           SKY/WX    TMP DP  RH WIND       PRES   REMARKS
GRAND ISLAND   CLOUDY     6   0  76 S9        30.49F WCI  -8
KEARNEY        CLOUDY     5  -1  76 SW12      30.47F WCI -11
HASTINGS       CLOUDY     5  -2  72 S7        30.50F WCI  -7
ORD            CLEAR      8   0  69 SW7       30.43F WCI  -3
YORK           CLOUDY     3   0  85 S8        30.53F WCI -10
AURORA         CLOUDY     5  -1  75 S9        30.51F WCI  -9
LEXINGTON      CLEAR     11   1  65 SW8       30.43F WCI  -1
HOLDREGE       CLOUDY     7   1  76 SW10      30.46F WCI  -8
HEBRON         CLOUDY     2  -1  83 S3        30.58S

...NEBRASKA PANHANDLE...

CITY           SKY/WX    TMP DP  RH WIND       PRES   REMARKS
CHADRON        CLEAR     11   4  73 SW5       30.23S WCI   3
ALLIANCE       CLEAR      6   2  83 S3        30.22F
SCOTTSBLUFF    CLEAR      7   3  84 W3        30.23F
SIDNEY         CLEAR      4  -1  80 W6        30.24F WCI  -7

...WESTERN AND NORTH CENTRAL NEBRASKA...

CITY           SKY/WX    TMP DP  RH WIND       PRES   REMARKS
VALENTINE      CLEAR     13   4  67 SW9       30.27F WCI   1
AINSWORTH      CLEAR     12   2  65 SW16      30.30S WCI  -5
ONEILL         CLEAR      9   1  71 S12       30.37F WCI  -6
BROKEN BOW     CLEAR      7  -2  66 SW8       30.38F WCI  -6
IMPERIAL       CLEAR      8   0  69 S6        30.33F WCI  -2
NORTH PLATTE   CLEAR     10  -2  58 VRB5      30.37F WCI   2
MCCOOK         CLEAR      5  -2  72 S6        30.41F WCI  -6

...EASTERN NEBRASKA...

CITY           SKY/WX    TMP DP  RH WIND       PRES   REMARKS
NORFOLK        CLOUDY     5  -1  76 S9        30.48F WCI  -9
SO SIOUX CITY  CLOUDY    -4  -7  87 SE6       30.55F WCI -16
TEKAMAH        CLOUDY    -2  -7  79 SE9       30.58F WCI -18
COLUMBUS       CLOUDY     4  -1  80 S7        30.54F WCI  -8
ALBION         CLOUDY     6   0  77 S5        30.47F WCI  -3
OMAHA EPPLEY   CLOUDY     1  -3  83 SE9       30.61F WCI -14
OFFUTT AFB     CLOUDY    -6 -11  79 S3        30.60F
MILLARD        CLOUDY     3  -1  83 CALM      30.61F
LINCOLN        CLOUDY     1  -4  79 S5        30.60F WCI  -9
NEBRASKA CITY  CLOUDY     1  -2  89 SW3       30.61S
BEATRICE       CLOUDY     0  -4  82 CALM      30.60S
FALLS CITY     CLEAR     -2  -7  79 S3        30.64F

...NORTHERN KANSAS...

CITY           SKY/WX    TMP DP  RH WIND       PRES   REMARKS
GOODLAND       CLEAR     12   0  58 SW13      30.32F WCI  -3
HILL CITY      CLOUDY     6  -1  73 S7        30.52S WCI  -6
NORTON         SUNNY      5  -4  66 S10       30.46F WCI -10
PHILLIPSBURG   CLEAR      3  -2  78 CALM      30.53F
SMITH CENTER     N/A      0   3 100 S5        30.56F WCI -10
BELOIT         CLEAR      1   3 100 CALM      30.60F
HAYS           CLOUDY     0  -4  83 SW3       30.55
RUSSELL        CLOUDY     3  -1  83 S10       30.55F WCI -12
CONCORDIA      CLOUDY     7   2  80 S10       30.59F WCI  -8
SALINA         CLOUDY     0  -3  87 S5        30.64S WCI -10
TOPEKA         PTCLDY    -2  -6  83 E3        30.68F



USA.gov is the U.S. government's official web portal to all federal, state and local government web resources and services.